Time,TemperatureF,DewpointF,PressureIn,WindDirection,WindDirectionDegrees,WindSpeedMPH,WindSpeedGustMPH,Humidity,HourlyPrecipIn,Conditions,Clouds,dailyrainin,SolarRadiationWatts/m^2,SoftwareType,DateUTC
2013-02-10 00:32:00,47.0,26.0,-100.00,SE,144,6.0,12.0,43,-99.99,,,0.00,0.000000,,2013-02-10 05:32:00,
2013-02-10 00:42:00,47.0,26.0,-100.00,SE,144,6.0,12.0,43,-99.99,,,0.00,0.000000,,2013-02-10 05:42:00,
2013-02-10 00:52:00,47.0,26.0,-100.00,SE,144,6.0,12.0,43,-99.99,,,0.00,0.000000,,2013-02-10 05:52:00,
2013-02-10 01:32:00,47.0,25.0,-100.00,SE,131,6.0,14.0,41,-99.99,,,0.00,0.000000,,2013-02-10 06:32:00,
2013-02-10 01:42:00,47.0,25.0,-100.00,SE,131,6.0,14.0,41,-99.99,,,0.00,0.000000,,2013-02-10 06:42:00,
2013-02-10 01:52:00,47.0,25.0,-100.00,SE,131,6.0,14.0,41,-99.99,,,0.00,0.000000,,2013-02-10 06:52:00,
2013-02-10 02:32:00,47.0,23.0,-100.00,SE,136,9.0,16.0,39,-99.99,,,0.00,0.000000,,2013-02-10 07:32:00,
2013-02-10 02:42:00,47.0,23.0,-100.00,SE,136,9.0,16.0,39,-99.99,,,0.00,0.000000,,2013-02-10 07:42:00,
2013-02-10 02:52:00,47.0,23.0,-100.00,SE,136,9.0,16.0,39,-99.99,,,0.00,0.000000,,2013-02-10 07:52:00,
2013-02-10 03:01:00,47.0,23.0,-100.00,SE,136,9.0,16.0,39,-99.99,,,0.00,0.000000,,2013-02-10 08:01:00,
2013-02-10 03:32:00,48.0,23.0,-100.00,SE,142,9.0,18.0,37,-99.99,,,0.00,0.000000,,2013-02-10 08:32:00,
2013-02-10 04:02:00,48.0,23.0,-100.00,SE,142,9.0,18.0,37,-99.99,,,0.00,0.000000,,2013-02-10 09:02:00,
2013-02-10 04:32:00,48.0,24.0,-100.00,SE,144,12.0,20.0,38,0.00,,,0.00,0.000000,,2013-02-10 09:32:00,
2013-02-10 04:42:00,48.0,24.0,-100.00,SE,144,12.0,20.0,38,0.00,,,0.00,0.000000,,2013-02-10 09:42:00,
2013-02-10 04:52:00,48.0,24.0,-100.00,SE,144,12.0,20.0,38,0.00,,,0.00,0.000000,,2013-02-10 09:52:00,
2013-02-10 05:01:00,48.0,24.0,-100.00,SE,144,12.0,20.0,38,0.00,,,0.00,0.000000,,2013-02-10 10:01:00,
2013-02-10 05:32:00,48.0,26.0,-100.00,SE,138,12.0,22.0,42,0.00,,,0.00,0.000000,,2013-02-10 10:32:00,
2013-02-10 05:42:00,48.0,26.0,-100.00,SE,138,12.0,22.0,42,0.00,,,0.00,0.000000,,2013-02-10 10:42:00,
2013-02-10 05:52:00,48.0,26.0,-100.00,SE,138,12.0,22.0,42,0.00,,,0.00,0.000000,,2013-02-10 10:52:00,
2013-02-10 06:01:00,48.0,26.0,-100.00,SE,138,12.0,22.0,42,0.00,,,0.00,0.000000,,2013-02-10 11:01:00,
2013-02-10 06:32:00,48.0,26.0,-100.00,SE,146,12.0,21.0,42,0.00,,,0.00,0.000000,,2013-02-10 11:32:00,
2013-02-10 06:42:00,48.0,26.0,-100.00,SE,146,12.0,21.0,42,0.00,,,0.00,0.000000,,2013-02-10 11:42:00,
2013-02-10 06:52:00,48.0,26.0,-100.00,SE,146,12.0,21.0,42,0.00,,,0.00,0.000000,,2013-02-10 11:52:00,
2013-02-10 07:02:00,48.0,26.0,-100.00,SE,146,12.0,21.0,42,0.00,,,0.00,0.000000,,2013-02-10 12:02:00,
2013-02-10 10:32:00,50.0,25.0,-100.00,SSE,149,14.0,29.0,38,-99.99,,,0.00,217.000000,,2013-02-10 15:32:00,
2013-02-10 10:42:00,50.0,25.0,-100.00,SSE,149,14.0,29.0,38,-99.99,,,0.00,217.000000,,2013-02-10 15:42:00,
2013-02-10 10:52:00,50.0,25.0,-100.00,SSE,149,14.0,29.0,38,-99.99,,,0.00,217.000000,,2013-02-10 15:52:00,
2013-02-10 11:02:00,50.0,25.0,-100.00,SSE,149,14.0,29.0,38,-99.99,,,0.00,217.000000,,2013-02-10 16:02:00,
2013-02-10 11:32:00,53.0,25.0,-100.00,SE,145,14.0,27.0,33,0.00,,,0.00,504.000000,,2013-02-10 16:32:00,
2013-02-10 11:42:00,53.0,25.0,-100.00,SE,145,14.0,27.0,33,0.00,,,0.00,504.000000,,2013-02-10 16:42:00,
2013-02-10 11:52:00,53.0,25.0,-100.00,SE,145,14.0,27.0,33,0.00,,,0.00,504.000000,,2013-02-10 16:52:00,
2013-02-10 12:02:00,53.0,25.0,-100.00,SE,145,14.0,27.0,33,0.00,,,0.00,504.000000,,2013-02-10 17:02:00,
2013-02-10 12:32:00,53.0,22.0,-100.00,SE,141,15.0,25.0,30,0.00,,,0.00,602.000000,,2013-02-10 17:32:00,
2013-02-10 12:42:00,53.0,22.0,-100.00,SE,141,15.0,25.0,30,0.00,,,0.00,602.000000,,2013-02-10 17:42:00,
2013-02-10 12:53:00,53.0,22.0,-100.00,SE,141,15.0,25.0,30,0.00,,,0.00,602.000000,,2013-02-10 17:53:00,
2013-02-10 13:02:00,53.0,22.0,-100.00,SE,141,15.0,25.0,30,0.00,,,0.00,602.000000,,2013-02-10 18:02:00,
2013-02-10 13:32:00,56.0,24.0,-100.00,SE,135,14.0,26.0,29,0.00,,,0.00,521.000000,,2013-02-10 18:32:00,
2013-02-10 13:42:00,56.0,24.0,-100.00,SE,135,14.0,26.0,29,0.00,,,0.00,521.000000,,2013-02-10 18:42:00,
2013-02-10 13:52:00,56.0,24.0,-100.00,SE,135,14.0,26.0,29,0.00,,,0.00,521.000000,,2013-02-10 18:52:00,
2013-02-10 14:02:00,56.0,24.0,-100.00,SE,135,14.0,26.0,29,0.00,,,0.00,521.000000,,2013-02-10 19:02:00,
2013-02-10 14:32:00,54.0,26.0,-100.00,SE,143,14.0,24.0,34,0.00,,,0.00,342.000000,,2013-02-10 19:32:00,
2013-02-10 14:43:00,54.0,26.0,-100.00,SE,143,14.0,24.0,34,0.00,,,0.00,342.000000,,2013-02-10 19:43:00,
2013-02-10 14:52:00,54.0,26.0,-100.00,SE,143,14.0,24.0,34,0.00,,,0.00,342.000000,,2013-02-10 19:52:00,
2013-02-10 15:02:00,54.0,26.0,-100.00,SE,143,14.0,24.0,34,0.00,,,0.00,342.000000,,2013-02-10 20:02:00,
2013-02-10 15:32:00,50.0,37.0,-100.00,SE,143,14.0,24.0,60,0.00,,,0.00,98.000000,,2013-02-10 20:32:00,
2013-02-10 15:42:00,50.0,37.0,-100.00,SE,143,14.0,24.0,60,0.00,,,0.00,98.000000,,2013-02-10 20:42:00,
2013-02-10 15:52:00,50.0,37.0,-100.00,SE,143,14.0,24.0,60,0.00,,,0.00,98.000000,,2013-02-10 20:52:00,
2013-02-10 16:02:00,50.0,37.0,-100.00,SE,143,14.0,24.0,60,0.00,,,0.00,98.000000,,2013-02-10 21:02:00,
2013-02-10 16:32:00,46.0,42.0,-100.00,SE,143,13.0,25.0,87,0.13,,,0.13,38.000000,,2013-02-10 21:32:00,
2013-02-10 17:02:00,46.0,42.0,-100.00,SE,143,13.0,25.0,87,0.13,,,0.13,38.000000,,2013-02-10 22:02:00,
2013-02-10 17:32:00,45.0,43.0,-100.00,SE,141,13.0,25.0,94,0.26,,,0.39,11.000000,,2013-02-10 22:32:00,
2013-02-10 17:42:00,45.0,43.0,-100.00,SE,141,13.0,25.0,94,0.26,,,0.39,11.000000,,2013-02-10 22:42:00,
2013-02-10 17:53:00,45.0,43.0,-100.00,SE,141,13.0,25.0,94,0.26,,,0.39,11.000000,,2013-02-10 22:53:00,
2013-02-10 18:02:00,45.0,43.0,-100.00,SE,141,13.0,25.0,94,0.26,,,0.39,11.000000,,2013-02-10 23:02:00,
2013-02-10 18:32:00,45.0,44.0,-100.00,SE,139,15.0,33.0,97,0.17,,,0.56,7.000000,,2013-02-10 23:32:00,
2013-02-10 18:42:00,45.0,44.0,-100.00,SE,139,15.0,33.0,97,0.17,,,0.56,7.000000,,2013-02-10 23:42:00,
2013-02-10 18:52:00,45.0,44.0,-100.00,SE,139,15.0,33.0,97,0.17,,,0.56,7.000000,,2013-02-10 23:52:00,
2013-02-10 19:02:00,45.0,44.0,-100.00,SE,139,15.0,33.0,97,0.17,,,0.56,7.000000,,2013-02-11 00:02:00,
2013-02-10 19:32:00,46.0,45.0,-100.00,SE,139,12.0,26.0,98,0.05,,,0.61,0.000000,,2013-02-11 00:32:00,
2013-02-10 19:42:00,46.0,45.0,-100.00,SE,139,12.0,26.0,98,0.05,,,0.61,0.000000,,2013-02-11 00:42:00,
2013-02-10 19:52:00,46.0,45.0,-100.00,SE,139,12.0,26.0,98,0.05,,,0.61,0.000000,,2013-02-11 00:52:00,
2013-02-10 20:01:00,46.0,45.0,-100.00,SE,139,12.0,26.0,98,0.05,,,0.61,0.000000,,2013-02-11 01:01:00,
2013-02-10 21:32:00,48.0,47.0,-100.00,SE,138,16.0,27.0,97,-99.99,,,0.69,0.000000,,2013-02-11 02:32:00,
2013-02-10 21:42:00,48.0,47.0,-100.00,SE,138,16.0,27.0,97,-99.99,,,0.69,0.000000,,2013-02-11 02:42:00,
2013-02-10 21:52:00,48.0,47.0,-100.00,SE,138,16.0,27.0,97,-99.99,,,0.69,0.000000,,2013-02-11 02:52:00,
2013-02-10 22:02:00,48.0,47.0,-100.00,SE,138,16.0,27.0,97,-99.99,,,0.69,0.000000,,2013-02-11 03:02:00,
2013-02-10 22:32:00,49.0,48.0,-100.00,SE,132,10.0,24.0,97,0.00,,,0.69,0.000000,,2013-02-11 03:32:00,
2013-02-10 22:42:00,49.0,48.0,-100.00,SE,132,10.0,24.0,97,0.00,,,0.69,0.000000,,2013-02-11 03:42:00,
2013-02-10 22:52:00,49.0,48.0,-100.00,SE,132,10.0,24.0,97,0.00,,,0.69,0.000000,,2013-02-11 03:52:00,
2013-02-10 23:02:00,49.0,48.0,-100.00,SE,132,10.0,24.0,97,0.00,,,0.69,0.000000,,2013-02-11 04:02:00,
2013-02-10 23:32:00,52.0,51.0,-100.00,SE,143,10.0,17.0,95,0.00,,,0.69,0.000000,,2013-02-11 04:32:00,
2013-02-10 23:42:00,52.0,51.0,-100.00,SE,143,10.0,17.0,95,0.00,,,0.69,0.000000,,2013-02-11 04:42:00,
2013-02-10 23:52:00,52.0,51.0,-100.00,SE,143,10.0,17.0,95,0.00,,,0.69,0.000000,,2013-02-11 04:52:00,